Wind_Speed
22 26 28 30 32 32 31 29 30 33 35 37 39 40 41 45 50 53 54 52 47 43 41 41 42 43 44 45 45 44 42 42 42 42 41 38 35 34 33 32 31 32 33 34 32 30 28 27 28 28 27 25 21 19 19 19 20 20 20 20 18 17 17 18 19 22 26 29 32 34 35 35 35 34 33 32 32 32 32 31 30 30 30 30 30
24 27 30 32 30 28 28 28 28 27 29 33 38 41 42 42 45 48 51 54 53 49 45 42 42 43 44 44 44 44 43 42 43 44 44 43 40 38 36 33 31 30 31 33 33 32 31 30 30 30 30 28 24 21 20 20 21 22 22 22 21 20 19 18 18 18 20 22 26 29 32 34 35 36 35 35 34 34 34 34 33 32 32 32 32
25 30 32 31 26 22 24 29 28 25 23 22 24 31 38 40 42 45 48 51 54 53 49 45 42 43 45 45 44 43 43 42 43 44 44 44 42 41 38 35 32 29 30 31 31 32 33 33 32 33 33 30 28 25 23 23 22 23 24 24 23 23 22 21 20 19 18 19 20 22 24 28 31 33 35 36 37 37 36 36 36 36 36 35 35
30 34 34 30 23 21 28 34 33 30 26 22 18 17 22 28 33 39 43 47 51 54 52 48 44 43 44 46 47 44 42 41 43 44 44 44 44 43 40 38 36 33 31 29 29 31 34 35 37 37 36 33 30 27 25 25 24 24 25 26 26 25 25 24 23 22 21 20 20 19 20 21 24 26 28 31 33 35 37 38 39 39 39 39 39
44 42 39 34 26 25 30 35 36 34 30 26 22 19 20 23 28 34 38 42 45 51 54 50 47 44 42 44 48 46 43 41 42 44 44 44 44 44 43 42 40 39 35 32 32 34 36 39 41 39 37 34 30 27 25 25 24 24 24 25 26 26 25 26 26 26 25 24 22 20 20 20 20 21 22 23 25 27 30 32 34 35 37 39 40
52 50 49 45 35 30 32 35 39 38 36 33 31 31 30 28 29 33 37 39 40 45 53 53 50 47 42 41 44 46 44 42 43 45 45 44 44 44 45 45 45 43 40 37 36 36 38 41 42 40 37 34 30 27 26 25 24 24 24 24 26 26 27 27 27 27 28 27 25 24 23 22 22 21 21 21 21 22 23 24 26 27 30 33 36
54 53 54 53 46 37 37 40 43 44 42 39 38 40 40 33 27 28 33 38 39 41 47 53 54 52 47 44 43 43 43 43 44 46 46 46 45 45 46 46 46 46 44 42 40 39 40 41 41 41 40 37 32 29 28 28 26 26 25 25 26 27 28 28 28 28 28 27 28 27 26 25 24 23 23 22 22 21 21 22 22 23 24 26 29
57 55 55 54 51 46 42 42 45 46 46 44 41 42 42 38 34 34 39 44 46 46 45 48 52 54 53 52 50 48 46 46 46 48 48 48 47 47 47 47 47 47 45 43 41 40 41 40 40 41 41 40 37 34 32 32 31 29 28 27 27 26 27 28 29 29 28 27 27 28 29 28 27 26 25 24 24 22 21 21 22 22 23 24 25
61 59 56 55 53 52 49 47 47 47 48 49 48 46 46 46 48 51 54 56 55 52 47 45 47 52 54 57 58 56 53 51 50 51 50 49 49 48 47 47 47 46 46 44 41 41 41 41 41 42 43 43 42 38 36 35 35 33 32 30 29 27 27 28 28 28 29 28 28 27 27 28 29 29 28 27 26 24 22 23 23 22 23 25 26
63 62 60 58 56 55 53 51 50 49 50 50 50 50 50 51 53 56 60 62 60 56 52 48 47 50 53 56 58 58 56 54 54 54 53 51 50 50 49 49 49 47 47 46 44 42 42 42 43 45 45 45 44 41 39 37 37 37 35 33 32 31 29 28 26 26 27 28 28 27 26 27 27 28 29 30 30 28 27 26 25 24 25 26 27
66 66 64 63 61 59 58 56 54 53 52 51 51 52 51 51 52 53 56 60 60 56 53 52 51 53 54 54 54 54 54 54 55 57 57 56 55 54 53 53 53 51 50 49 48 46 44 43 43 45 46 47 47 46 43 41 41 41 39 37 36 35 33 30 27 27 27 27 26 25 26 27 27 26 27 29 30 30 30 30 30 28 27 28 28
68 69 68 67 65 64 62 60 59 58 56 54 52 53 52 51 50 49 50 53 55 54 52 51 53 55 54 53 54 55 55 54 54 56 57 58 58 57 57 57 56 55 53 52 51 50 48 46 45 46 48 49 50 50 49 47 46 45 44 41 40 38 36 32 30 29 29 29 28 27 27 28 27 27 26 26 26 28 29 30 31 30 29 30 30
69 70 71 70 69 68 66 65 63 62 60 58 55 53 52 51 49 48 46 47 51 53 52 50 52 54 53 52 54 55 54 52 53 54 55 55 56 57 58 57 57 56 54 53 52 51 50 49 48 48 50 52 53 53 53 52 49 47 46 44 42 40 38 36 33 31 30 30 29 29 28 26 26 27 27 25 24 25 27 28 29 30 30 31 31
71 71 72 72 72 71 70 69 67 66 64 61 59 55 53 51 50 48 46 45 47 51 52 51 51 52 52 51 51 53 52 50 50 52 53 53 53 56 57 57 56 56 53 51 50 50 50 49 50 51 51 52 53 54 54 53 50 48 46 44 43 42 41 39 38 36 34 33 31 30 27 24 24 25 25 26 25 25 26 27 27 28 29 30 31
73 73 73 74 74 73 72 71 69 68 66 64 62 59 56 53 50 49 48 47 46 48 51 52 51 51 52 51 51 53 54 51 48 49 52 53 54 55 57 57 56 55 53 51 49 48 47 48 49 51 53 53 53 52 51 50 48 47 46 45 44 44 42 41 41 41 40 38 37 35 30 25 24 23 23 24 25 25 26 27 27 27 29 30 30
73 74 75 75 74 73 72 71 70 68 67 66 64 62 60 57 54 51 49 48 48 48 49 50 51 51 52 52 51 52 55 55 52 50 51 54 56 57 58 58 57 56 54 53 50 46 43 44 46 48 51 53 54 52 49 46 47 48 49 48 46 45 44 43 43 43 43 42 41 38 34 30 27 25 23 23 24 24 25 26 28 29 29 30 30
74 75 75 74 74 72 71 70 70 70 69 69 68 66 64 61 58 55 52 50 50 49 48 50 51 52 53 53 53 53 55 57 58 56 54 55 57 59 60 59 59 59 57 56 54 49 44 43 44 45 47 50 52 52 48 45 47 50 52 51 50 48 47 46 44 44 44 43 43 42 40 37 33 29 26 25 25 24 25 27 29 30 30 31 33
72 73 73 73 73 73 73 72 72 72 72 71 70 69 68 65 62 59 56 54 52 50 50 51 52 54 55 55 55 55 55 57 59 60 59 58 59 61 63 63 63 62 60 58 58 54 49 46 45 45 46 48 48 47 46 46 48 51 53 53 52 51 51 50 48 46 45 44 45 46 45 41 36 32 30 28 27 26 27 29 30 30 30 32 35
64 65 66 67 68 68 69 69 69 69 69 68 68 68 68 67 65 62 60 57 55 53 53 54 55 55 56 57 58 58 58 58 60 62 63 62 63 63 64 65 66 66 64 61 59 57 54 50 47 46 48 47 45 44 44 47 50 52 53 53 52 52 54 53 51 50 49 48 49 50 49 46 41 37 34 32 30 29 29 31 32 32 32 34 35
57 58 59 60 60 61 61 62 62 62 62 63 64 65 66 66 66 65 63 61 58 55 55 56 58 58 58 59 60 61 61 61 62 65 66 65 66 67 66 67 68 68 68 65 62 60 59 57 55 52 51 49 47 45 46 49 52 53 54 55 56 56 55 53 52 53 52 51 52 53 53 51 48 43 39 36 34 33 33 33 34 34 35 37 38
55 56 57 58 58 59 58 58 58 58 57 57 58 60 62 63 65 66 66 65 63 61 58 58 60 61 61 62 63 64 65 64 64 67 69 68 67 68 69 69 68 68 70 70 69 66 64 63 63 62 60 58 55 52 51 53 54 54 54 56 58 58 55 53 54 54 53 53 53 53 53 53 52 49 45 41 39 37 37 37 37 37 38 40 42
57 57 58 59 60 60 60 59 59 58 57 56 56 57 57 59 61 63 66 67 67 67 65 63 63 64 65 65 65 66 67 68 67 67 70 71 70 68 69 71 70 69 69 71 72 71 69 68 67 66 66 65 63 60 58 57 57 57 57 56 56 57 57 56 57 57 57 56 55 54 53 52 52 52 50 46 44 42 41 41 42 43 43 43 43
58 58 59 60 60 61 61 61 61 60 60 58 58 58 57 57 57 59 61 64 66 68 69 68 66 66 67 68 68 68 69 70 71 70 71 73 74 72 70 70 70 71 71 72 72 71 71 71 71 69 68 67 66 64 62 60 59 59 58 56 55 55 56 58 59 59 60 60 58 57 56 55 54 53 52 50 49 47 46 48 49 49 48 46 45
59 59 60 60 61 61 62 62 62 62 61 61 60 60 59 58 58 58 58 60 62 64 67 68 68 69 69 70 71 71 71 71 74 74 73 74 76 76 74 71 70 70 71 73 73 72 71 71 71 71 70 68 65 63 63 62 61 61 60 58 56 55 56 58 60 61 62 62 62 62 61 59 57 55 54 53 53 53 53 54 53 52 52 51 50
60 60 60 61 61 61 62 62 63 62 62 62 61 61 60 60 60 60 59 59 60 62 64 66 68 70 71 72 72 73 73 73 75 77 77 75 74 76 77 76 73 72 71 72 73 72 72 72 71 70 70 69 66 64 64 65 64 63 62 61 60 60 60 60 61 62 63 64 64 64 64 62 60 58 57 56 57 58 58 57 55 55 57 58 57
61 61 62 62 62 62 62 62 63 63 63 62 62 61 61 60 60 61 61 61 61 62 63 65 66 69 72 74 74 74 75 75 75 78 80 79 76 75 76 77 76 75 74 74 73 72 71 70 69 69 69 69 69 68 68 68 68 67 66 65 65 64 65 64 63 63 64 64 64 64 63 63 62 61 61 61 61 62 61 59 59 60 60 61 61
63 63 63 63 63 63 63 63 63 63 63 63 62 62 61 61 60 61 62 62 63 64 64 65 66 67 70 74 76 76 76 77 77 78 80 81 80 77 76 77 77 77 76 76 74 72 70 68 67 68 69 69 70 71 71 70 69 69 67 65 64 65 68 69 68 67 67 66 64 63 62 62 62 63 63 64 64 64 63 62 62 61 60 61 63
65 65 64 64 63 63 63 63 63 63 63 63 62 62 61 60 60 61 62 62 63 65 66 67 67 68 69 72 75 77 78 78 78 78 78 81 83 81 78 77 78 78 78 77 72 67 66 68 70 71 72 72 73 73 72 70 69 67 65 62 61 64 68 69 68 68 69 67 66 65 64 64 63 64 64 64 65 64 63 62 62 60 59 60 63
67 66 65 64 64 63 64 63 63 63 63 62 61 61 60 59 59 60 61 62 63 65 67 68 69 69 70 71 73 76 78 80 79 78 77 79 83 86 83 80 80 80 80 78 72 64 61 67 71 72 73 74 74 73 72 71 68 66 65 65 65 67 69 69 69 69 69 68 67 66 65 64 64 64 64 65 65 64 62 61 60 59 58 57 59
67 66 65 64 64 64 64 63 62 62 62 61 61 61 59 58 58 58 60 60 61 63 67 69 70 69 69 71 72 73 77 80 80 78 76 77 81 87 89 86 83 82 82 80 75 68 65 67 70 71 72 73 73 72 71 68 66 66 67 68 68 68 68 67 68 69 68 67 66 66 65 65 65 65 64 64 64 62 61 61 61 60 57 54 54
67 66 65 64 64 63 63 62 61 61 61 60 60 60 60 59 57 57 58 59 59 60 64 67 70 69 69 70 71 72 74 77 79 78 77 76 78 84 90 91 88 85 84 83 80 75 71 70 71 72 72 72 71 71 69 65 65 67 69 69 68 68 67 67 68 68 67 67 67 67 66 66 66 65 64 63 62 61 60 61 61 59 57 56 57
65 64 64 62 62 61 60 59 59 59 59 58 58 58 58 58 57 55 55 56 57 58 60 63 67 69 69 69 70 71 72 74 76 77 77 78 78 81 87 93 93 90 87 86 84 81 77 73 73 74 74 72 71 70 70 69 69 69 69 69 68 67 67 67 67 67 67 68 68 68 68 68 67 65 64 63 62 60 58 57 57 56 57 59 61
60 60 59 58 57 57 56 55 55 56 55 55 54 54 55 56 56 55 53 52 54 56 57 59 62 65 67 68 69 70 71 72 73 74 75 78 79 80 83 88 94 95 93 89 87 86 84 79 74 73 72 71 70 70 69 70 72 71 68 67 67 67 67 66 66 65 65 67 68 69 69 69 68 66 64 63 61 59 57 55 56 58 60 61 60
54 54 53 52 52 51 50 50 50 50 50 50 50 51 52 52 53 53 52 50 50 52 54 55 57 60 63 65 67 69 71 71 72 73 73 75 78 80 81 84 89 95 98 95 91 90 90 86 81 75 71 69 69 69 66 66 70 72 70 67 63 60 60 61 63 63 63 63 63 66 69 68 66 65 65 63 61 60 59 58 58 59 58 56 55
46 46 46 46 45 45 45 45 45 44 44 45 46 47 48 48 48 49 49 49 47 47 49 51 54 56 59 61 63 66 69 70 71 72 72 73 75 78 81 82 85 90 96 99 97 94 93 91 88 83 76 71 69 68 66 64 66 69 70 69 63 56 54 56 58 60 62 62 62 64 68 69 68 67 66 65 63 62 61 61 61 59 56 54 54
38 38 39 39 39 39 39 39 39 39 40 41 42 43 44 45 45 45 46 46 46 45 45 46 49 52 55 56 59 62 66 69 70 71 71 71 73 75 78 81 83 86 91 97 100 99 96 94 92 90 86 79 75 72 70 67 65 65 66 68 67 63 61 61 60 61 64 65 63 63 64 66 68 69 69 67 66 65 63 60 58 56 55 55 55
30 31 32 32 32 33 34 34 35 35 36 37 38 39 40 40 40 41 41 42 43 43 42 42 43 45 49 53 56 59 62 65 68 69 69 70 71 73 75 78 82 84 87 93 98 101 100 97 95 93 91 87 83 80 77 74 70 67 65 67 69 71 71 69 66 65 65 64 63 63 64 65 67 69 70 70 71 70 68 64 60 59 61 62 62
25 26 27 27 28 28 29 30 31 32 33 34 35 36 37 37 38 38 38 38 39 40 41 40 40 40 43 48 52 55 57 59 62 64 66 68 69 71 73 75 79 82 85 89 94 99 102 102 99 96 94 92 89 87 85 82 79 75 72 71 71 73 74 73 71 70 67 63 61 64 66 67 68 68 69 72 74 75 73 72 70 69 69 68 65
21 22 24 24 25 26 27 28 29 30 31 32 33 34 35 36 37 37 37 37 37 38 39 40 40 39 40 42 46 49 52 53 56 58 62 65 67 69 71 73 76 79 82 86 90 95 100 103 103 101 98 95 93 90 88 87 86 85 83 80 77 75 74 74 74 74 72 68 66 66 67 67 67 67 68 70 72 74 74 74 75 74 73 71 66
20 21 22 23 24 25 26 27 28 29 30 31 33 34 35 37 37 38 38 38 37 37 38 38 39 39 39 39 40 42 45 48 50 52 55 58 62 65 68 71 74 76 80 83 87 90 95 100 103 104 103 100 98 95 92 90 89 88 88 89 88 84 80 77 76 76 75 74 73 73 72 71 69 68 68 69 71 72 73 74 74 74 73 71 69
20 21 23 24 25 25 26 27 28 29 31 32 33 35 37 38 39 39 39 39 38 38 37 37 38 39 40 40 39 39 40 42 45 46 48 51 55 58 62 66 69 72 75 79 82 86 89 94 98 103 104 104 102 100 98 96 93 90 89 89 90 90 88 85 83 81 80 79 79 78 78 76 74 72 71 71 72 73 74 73 73 71 70 69 68
22 23 24 25 26 27 28 29 30 31 32 34 35 36 38 40 41 42 41 41 40 39 38 38 38 39 40 40 40 40 39 39 40 42 44 46 48 51 55 59 63 67 71 74 77 81 84 89 93 97 101 103 104 103 103 102 100 97 95 92 90 90 89 89 88 86 84 83 83 83 82 80 78 75 74 74 74 75 76 76 74 73 71 69 68
24 26 27 28 29 30 31 31 32 33 34 35 36 37 39 40 42 43 44 44 43 42 41 40 40 40 40 41 41 41 40 39 38 39 41 42 43 45 48 52 55 59 64 68 71 75 79 83 88 91 94 97 100 102 103 104 105 105 104 102 99 96 94 93 92 91 89 87 87 87 86 85 83 81 80 80 79 79 79 78 77 74 72 70 68
27 28 29 31 32 33 34 34 35 35 36 36 37 38 39 41 42 44 45 46 46 46 45 44 43 42 42 41 41 41 42 41 40 39 40 41 41 41 42 44 47 51 56 61 65 69 71 75 79 84 88 91 94 98 101 104 107 109 108 107 105 103 102 101 100 99 97 95 93 92 91 91 89 88 87 86 84 83 82 80 78 75 73 71 69
31 32 33 34 34 35 36 37 37 38 38 38 39 40 41 42 43 44 45 46 47 48 48 48 47 46 44 43 42 42 43 43 43 41 42 43 42 38 38 39 42 45 49 53 57 61 66 70 75 79 83 87 91 94 98 102 106 108 109 108 107 105 104 104 104 104 103 102 101 100 100 99 98 96 94 92 90 87 85 83 81 78 76 73 71
35 35 36 37 37 38 38 39 40 40 40 41 41 42 42 43 44 45 46 46 47 48 49 49 50 49 48 46 45 44 43 44 45 44 44 45 44 40 37 38 39 40 42 45 48 52 59 68 74 78 81 85 88 92 95 99 103 105 107 108 108 107 105 105 105 105 105 104 104 103 103 102 101 100 99 96 93 90 87 86 84 82 79 77 74
37 37 38 39 39 40 40 41 42 42 42 42 43 43 44 44 44 45 46 47 47 48 48 49 50 51 51 50 48 47 46 46 46 46 46 47 46 44 41 39 39 38 39 40 42 45 50 57 65 72 78 82 86 90 93 97 100 102 103 104 105 106 105 104 104 105 105 105 104 103 102 101 100 99 97 96 94 92 89 87 85 83 82 79 76
37 38 38 39 39 40 40 41 41 41 41 41 42 43 44 44 45 45 45 46 47 48 49 49 49 50 51 51 52 51 50 49 48 48 48 47 48 47 45 43 41 40 39 39 40 42 45 49 54 61 68 75 80 84 87 91 94 98 100 101 101 101 101 101 101 102 102 103 103 103 102 101 100 98 97 95 94 92 90 89 87 86 84 82 79
37 37 37 37 38 38 39 39 39 39 39 39 40 40 41 42 43 44 45 45 46 48 49 50 50 50 51 51 52 53 53 53 52 50 49 49 49 48 48 47 45 43 42 41 40 41 43 46 49 54 59 65 72 77 82 85 87 90 92 95 96 97 97 97 98 99 99 99 100 100 101 100 100 99 98 96 94 92 91 89 88 88 86 85 83
36 36 36 37 37 37 38 38 38 38 38 38 38 38 39 39 40 41 42 44 46 47 47 48 50 51 51 52 52 53 54 55 55 54 53 51 50 50 50 50 49 47 46 45 44 43 43 45 47 50 54 59 64 69 74 79 82 84 85 87 90 91 92 93 94 95 96 97 98 98 99 99 98 98 97 96 94 93 91 90 90 89 88 87 86
37 37 37 37 38 38 39 39 39 39 39 39 38 38 38 37 37 38 39 41 43 45 46 47 48 50 51 52 52 53 54 56 57 58 57 55 53 52 52 52 52 51 49 48 48 47 47 47 47 49 50 53 57 61 66 71 75 79 81 83 84 86 87 89 90 91 93 94 95 97 97 97 97 96 95 94 93 92 91 91 91 90 90 90 90
Wind_Direction
271 284 285 284 286 292 297 297 299 303 303 300 294 288 283 278 273 270 267 265 263 262 265 262 256 252 250 248 245 243 246 248 245 239 234 233 237 243 248 252 254 252 248 249 250 250 249 248 249 253 258 262 270 275 271 266 261 255 250 246 243 240 238 239 240 242 244 245 245 245 245 246 247 248 250 253 254 255 255 256 257 258 260 261 262
262 284 288 289 293 301 304 299 297 299 301 303 302 298 294 287 279 273 268 264 262 262 263 261 255 250 248 248 246 245 246 247 246 242 237 235 238 240 239 242 249 251 249 250 252 253 251 247 246 249 252 255 260 267 271 269 265 260 255 250 245 243 242 241 240 242 244 247 248 248 248 249 250 251 253 254 255 255 255 257 258 260 261 262 262
262 284 284 285 292 294 286 277 274 271 270 279 295 305 307 303 294 285 275 266 260 259 260 259 254 248 246 245 245 245 245 246 246 243 240 239 240 240 235 235 241 245 247 249 250 252 251 248 246 247 250 252 254 259 265 267 265 261 257 252 247 243 242 241 242 242 243 245 247 249 250 251 252 253 254 255 257 258 258 259 260 262 263 263 263
267 284 282 280 281 278 272 267 265 262 255 254 262 279 295 299 295 290 283 272 261 255 255 256 252 248 246 245 244 244 246 246 244 242 240 240 243 242 237 235 237 239 242 243 241 241 245 246 244 244 246 249 251 253 259 262 262 259 255 252 248 243 240 239 239 241 241 243 244 246 249 250 252 253 255 256 257 258 260 260 261 262 263 264 264
269 276 279 280 273 265 271 275 273 267 258 253 252 251 256 264 269 276 281 278 267 255 250 251 250 247 245 245 244 245 246 246 243 240 239 240 242 243 242 240 241 241 241 239 233 231 235 239 241 241 243 246 248 251 257 260 260 258 256 254 250 246 242 238 236 237 237 239 240 243 245 248 251 253 256 257 258 259 260 262 263 264 265 266 266
273 272 274 280 275 258 257 266 272 272 266 259 256 254 253 254 263 273 276 276 271 260 251 248 247 246 244 241 241 242 242 241 240 238 238 238 239 239 240 241 242 243 242 238 233 231 232 236 240 240 241 244 246 249 254 256 255 255 255 255 254 252 249 244 240 237 236 235 236 237 240 243 247 250 254 257 259 261 262 265 267 268 268 267 267
276 275 275 279 280 270 259 258 264 269 270 265 260 257 254 252 261 273 272 269 268 265 257 251 247 246 245 242 239 239 239 238 236 236 235 235 236 236 236 237 239 240 240 238 235 233 233 237 240 241 242 244 245 247 251 252 250 249 249 249 250 250 250 249 247 244 242 239 237 236 238 240 243 246 250 254 258 260 263 267 269 271 271 271 271
274 279 279 280 282 281 276 271 272 274 275 273 269 263 256 248 247 254 261 264 265 265 264 259 252 249 248 247 245 243 242 238 234 233 232 232 233 234 234 234 235 235 235 235 234 234 235 237 240 241 243 244 245 248 252 251 249 249 249 247 246 246 247 248 248 248 249 248 244 242 240 241 243 245 248 252 256 260 263 266 269 273 275 275 275
272 278 282 283 283 283 282 280 280 279 279 278 275 271 263 254 249 251 256 262 265 264 263 263 259 254 252 250 248 247 246 243 238 234 232 231 231 233 234 234 233 231 230 230 230 232 235 237 239 241 242 243 245 248 250 250 248 250 252 250 248 247 246 246 247 249 249 250 251 252 250 248 247 248 249 253 257 260 263 266 270 275 276 276 279
271 275 279 281 281 282 282 282 281 280 279 278 277 275 270 263 257 255 255 258 262 263 260 257 254 252 251 251 251 250 249 247 243 238 235 234 234 234 236 237 236 234 232 230 229 229 231 234 237 239 241 242 243 245 247 247 248 250 252 250 248 248 247 246 247 248 249 249 250 255 259 259 257 254 253 254 258 260 263 266 271 273 274 277 281
269 272 275 278 279 279 279 279 279 279 278 277 276 275 272 268 263 259 255 255 258 260 258 253 249 248 248 249 250 251 250 246 243 240 237 236 237 239 239 240 240 240 238 236 233 231 230 233 236 238 239 240 241 243 245 246 248 249 250 249 248 246 245 246 247 248 248 247 247 251 258 261 261 259 257 256 258 259 262 265 267 270 273 276 279
269 271 273 275 277 277 277 276 276 276 275 274 274 273 272 269 266 262 258 255 255 256 255 252 249 248 247 248 248 247 247 246 242 239 237 237 238 239 239 238 239 239 239 238 237 236 236 237 238 237 236 237 238 241 244 246 247 247 247 246 247 245 243 244 247 247 246 246 246 248 253 257 258 258 260 261 260 260 260 262 265 268 271 272 274
269 271 272 274 275 276 276 275 274 273 272 271 270 269 269 269 267 265 262 257 254 253 252 251 249 248 247 247 247 246 244 243 242 239 237 236 237 238 238 237 236 236 236 236 237 238 240 241 241 239 236 235 237 239 242 244 245 244 243 244 245 244 243 244 247 247 246 246 247 246 248 252 255 257 261 264 264 263 262 262 265 267 268 269 272
268 269 270 272 273 274 274 274 273 272 271 270 268 266 265 266 266 266 264 261 256 253 251 249 248 249 248 245 244 242 240 241 241 239 237 236 236 236 236 236 235 234 234 235 237 239 240 242 242 239 236 236 236 236 239 242 242 242 240 240 242 243 243 245 246 247 247 248 250 252 252 251 254 257 260 262 263 264 266 267 269 269 268 269 271
266 267 267 269 270 271 271 271 271 271 270 269 268 266 264 262 261 262 263 262 259 255 252 249 247 246 246 245 241 238 236 237 238 237 236 234 233 233 233 232 231 231 231 232 234 237 238 239 239 237 235 234 234 235 238 240 240 240 238 237 240 243 244 246 247 246 247 249 252 255 255 252 253 256 259 261 262 265 270 272 274 274 273 273 273
265 266 266 267 267 267 267 267 268 268 268 268 267 266 265 262 259 257 257 258 259 257 254 251 247 244 242 242 240 236 233 232 232 233 233 232 231 230 230 230 229 229 229 229 231 234 235 236 237 237 236 234 233 235 238 239 236 236 237 237 240 242 243 246 245 243 243 246 250 254 253 251 253 256 259 262 265 271 276 275 276 279 280 278 276
266 266 266 266 266 265 265 265 265 266 266 266 266 266 265 263 260 256 253 252 254 255 255 253 249 244 240 239 238 235 231 229 231 232 230 230 230 228 228 228 228 229 230 229 230 231 232 233 236 239 239 239 237 237 239 238 235 235 237 238 240 241 241 242 242 239 238 240 244 249 251 252 254 255 258 262 266 276 281 278 281 287 284 276 274
267 267 267 267 266 266 265 265 265 265 265 264 264 264 264 263 261 258 253 250 249 250 252 253 250 246 242 237 235 233 230 227 229 232 231 229 229 229 227 227 227 228 230 230 230 230 229 230 235 238 239 241 241 239 239 239 238 237 238 240 242 242 242 241 240 238 238 238 240 244 248 251 252 254 258 262 267 275 279 280 288 292 284 274 273
269 268 268 267 267 267 266 266 265 264 263 263 262 261 261 261 260 258 255 252 248 246 247 250 251 249 244 239 234 231 229 226 226 230 232 231 231 231 230 228 227 227 228 229 230 229 228 230 233 235 238 240 241 240 238 238 240 240 241 243 243 243 243 242 241 240 240 239 240 244 247 249 251 254 259 263 267 273 276 280 288 292 284 277 275
270 269 269 269 268 268 267 267 266 265 264 262 261 260 259 259 258 258 256 254 251 248 245 246 249 249 247 243 237 232 229 226 224 227 231 232 232 232 232 231 229 227 227 229 230 230 230 231 234 235 237 239 240 239 237 238 240 241 241 242 243 243 243 244 244 244 242 241 242 244 246 249 251 254 259 263 266 270 275 279 285 288 284 279 277
270 270 270 270 270 269 268 268 268 267 265 264 262 260 259 258 257 257 256 254 252 251 248 245 246 247 247 245 241 235 231 227 225 225 227 231 232 233 233 233 232 230 229 230 232 233 233 233 235 237 238 239 240 240 240 241 242 242 240 240 242 243 245 245 247 247 245 244 244 244 246 249 250 253 258 263 265 269 274 278 281 284 283 280 278
269 269 269 270 270 270 270 269 269 268 267 266 265 263 261 259 258 256 256 254 253 252 251 248 245 244 245 245 243 239 233 229 226 225 225 228 230 231 232 234 234 234 233 233 234 236 236 236 236 237 238 240 240 241 243 243 244 243 242 241 241 242 244 245 246 247 246 246 246 246 247 250 251 252 257 262 265 268 273 276 278 282 284 282 279
270 269 269 269 269 270 270 270 269 269 268 267 266 265 263 261 259 258 256 255 254 253 252 250 247 244 243 243 244 241 236 231 228 226 225 226 228 230 231 232 234 235 236 236 237 238 238 239 239 239 240 241 242 243 244 245 244 243 243 242 242 242 243 244 245 246 247 247 248 248 249 251 252 253 256 260 264 267 270 274 277 280 283 281 277
270 270 270 270 270 270 270 270 270 270 269 268 267 266 265 263 261 259 258 256 255 254 252 250 248 245 242 241 242 242 239 234 229 227 226 226 228 229 230 231 232 234 236 237 238 239 239 240 241 241 242 243 243 243 245 246 245 243 242 241 241 242 243 244 245 246 247 248 249 250 251 252 253 254 256 260 264 267 270 273 275 277 280 280 277
271 271 270 270 270 270 270 270 270 270 270 269 268 267 266 264 263 261 259 257 255 254 253 251 248 246 244 242 240 240 240 237 232 229 227 227 227 229 230 231 232 233 235 236 237 238 239 240 240 241 241 242 241 240 240 242 245 245 244 242 242 242 244 245 246 246 247 248 250 251 252 253 254 255 258 262 265 267 269 271 273 275 278 279 277
271 271 271 270 270 270 270 270 270 270 270 269 269 268 266 265 263 261 259 258 255 254 253 252 250 247 245 244 242 240 239 239 236 231 228 227 227 228 229 231 231 232 233 235 235 235 236 237 237 238 239 239 239 238 238 239 242 244 246 246 247 247 248 248 248 248 249 250 251 252 254 255 256 258 261 263 265 266 267 269 271 274 276 276 275
272 271 271 270 270 270 270 270 270 270 270 269 268 268 267 265 263 262 260 258 256 255 253 252 250 249 247 245 244 242 240 239 238 234 230 227 226 227 228 229 230 230 232 234 235 235 236 237 236 236 237 238 238 238 239 239 241 243 245 248 250 251 251 250 249 250 250 252 253 255 256 257 258 259 261 262 264 265 267 269 270 271 272 272 272
272 271 271 270 270 270 270 269 269 269 269 269 268 268 266 265 263 261 260 258 256 255 254 252 250 249 247 246 245 243 242 240 238 237 233 228 226 226 226 227 228 229 230 232 234 236 239 240 239 238 238 239 240 240 241 241 242 243 244 245 246 248 249 250 250 251 252 253 254 256 258 259 259 260 261 262 263 265 267 268 269 269 269 270 269
271 271 271 270 270 270 270 269 269 269 269 269 269 268 267 265 263 261 259 256 255 255 254 253 251 249 248 247 245 244 243 242 240 238 236 231 227 225 225 226 227 228 229 230 231 233 237 239 239 238 238 238 239 239 240 242 243 245 245 244 244 246 249 251 252 253 254 255 256 257 259 260 260 261 262 263 265 266 266 266 265 266 267 267 267
271 271 271 270 270 270 270 270 270 270 270 270 270 269 267 265 263 261 258 256 254 253 253 253 252 250 248 248 247 245 244 244 242 240 237 234 230 227 225 225 225 226 227 228 228 229 233 236 237 237 238 237 237 238 239 241 244 246 246 245 245 247 249 251 252 254 255 257 258 259 260 260 261 262 263 264 265 265 266 265 264 263 263 263 264
271 270 270 270 270 270 270 270 270 270 270 270 270 270 268 266 263 261 259 257 254 252 252 253 253 252 250 248 248 246 245 244 244 242 239 236 233 230 227 226 225 225 226 226 226 227 231 235 236 236 237 238 238 238 238 239 241 243 244 244 245 246 248 249 251 253 255 256 258 258 259 259 261 262 263 264 265 266 266 264 262 260 260 262 266
269 269 269 269 270 270 270 270 270 269 269 269 269 269 268 267 264 261 259 258 256 253 251 251 252 252 251 249 248 247 246 245 244 243 241 238 236 232 230 227 226 225 226 226 226 226 229 232 235 236 237 238 238 238 237 237 238 240 241 242 243 245 246 248 250 252 254 255 256 257 257 258 259 260 261 263 264 265 263 261 259 259 263 266 267
268 268 268 269 269 269 269 269 269 268 268 268 267 267 267 266 265 263 259 258 257 255 253 251 250 250 250 250 249 248 247 246 245 242 240 239 237 235 232 230 228 226 226 226 226 226 228 230 232 234 235 236 236 236 237 237 238 239 240 242 243 245 247 249 251 253 254 255 256 256 256 256 256 257 258 259 260 260 259 259 261 263 265 266 264
267 267 268 268 268 269 268 267 267 266 266 266 266 266 265 265 265 265 262 258 256 256 255 253 251 249 249 249 249 249 248 247 246 244 241 239 238 237 235 233 230 228 227 227 227 227 228 229 230 230 230 231 232 233 234 235 237 239 240 242 244 246 248 251 252 252 252 252 253 252 251 251 252 253 254 255 256 257 258 260 263 263 262 260 260
267 267 266 266 266 266 265 265 264 264 264 264 264 265 265 265 265 265 264 262 258 255 254 254 253 251 249 247 247 248 248 247 246 245 243 240 238 237 236 235 233 230 229 228 228 228 229 229 229 229 228 228 229 231 231 233 236 237 238 240 242 242 242 244 246 245 244 245 247 247 246 247 247 249 250 252 254 256 259 261 262 261 260 260 261
267 266 265 264 263 263 263 263 263 262 262 262 263 263 264 265 265 265 265 264 262 258 254 253 253 253 252 249 247 246 246 247 246 245 243 242 239 237 236 236 234 232 230 229 229 229 230 230 230 230 229 229 230 230 231 232 235 235 236 237 237 237 237 239 240 238 238 241 244 246 246 246 246 246 248 250 252 254 256 258 260 260 260 261 262
267 265 264 262 261 261 261 261 261 261 261 261 262 263 264 265 265 265 265 265 264 262 259 255 253 252 253 252 249 246 245 245 245 245 244 243 241 239 237 236 235 234 232 230 230 230 230 230 230 230 230 230 230 231 231 232 233 234 233 233 233 233 235 238 238 237 237 240 245 246 246 245 245 246 248 249 251 252 254 255 257 259 260 261 262
266 265 263 262 260 260 260 260 261 261 262 262 262 263 265 266 267 267 267 267 267 266 264 262 258 255 253 252 252 250 247 245 244 245 244 243 242 241 239 237 235 234 233 232 230 230 230 231 231 230 230 231 231 232 232 234 234 234 232 232 232 234 235 237 237 236 237 239 244 246 246 246 247 248 249 250 252 254 255 257 257 259 260 262 263
266 264 262 261 261 260 261 262 263 264 264 264 263 263 264 267 268 269 270 271 270 269 269 268 266 263 259 256 254 253 251 248 246 244 244 243 242 241 240 239 237 235 234 233 232 231 231 231 231 231 231 231 231 232 233 234 235 235 234 232 232 232 234 236 238 238 238 238 241 244 246 247 248 249 249 250 252 254 256 257 258 260 262 264 264
268 267 266 266 265 266 266 266 267 268 267 266 265 263 263 265 268 270 271 272 273 272 271 270 269 268 266 263 259 256 255 253 251 247 245 244 243 242 241 240 239 237 235 234 233 232 232 231 231 232 232 232 232 232 232 233 233 233 233 233 233 233 234 236 239 240 240 240 242 244 246 248 249 250 250 251 253 255 256 257 259 261 262 263 265
271 271 271 272 272 272 272 272 272 272 272 271 269 266 265 264 265 267 269 271 272 272 272 271 270 270 270 269 267 263 259 257 256 253 250 247 245 244 243 241 240 239 237 236 234 233 233 232 232 232 232 233 233 233 233 233 233 232 232 232 233 234 235 237 239 241 242 243 244 245 247 249 251 251 251 252 253 255 256 257 259 260 261 263 264
276 275 275 275 275 274 274 274 274 274 273 272 271 269 268 266 265 265 266 267 268 269 270 270 269 270 270 271 271 269 266 262 259 257 254 251 248 246 244 243 241 240 238 237 235 234 233 233 233 233 233 234 234 234 234 235 236 236 235 234 234 234 236 237 239 240 242 244 245 246 247 248 249 250 251 252 253 254 256 258 259 259 260 261 262
280 279 277 277 276 275 274 274 273 273 272 271 270 269 268 267 266 265 264 264 264 265 265 266 267 267 268 269 270 271 270 266 263 260 257 255 252 249 246 244 242 241 239 238 236 234 233 232 233 233 234 234 235 236 236 237 238 239 239 239 238 237 237 237 238 240 241 243 244 245 246 247 248 250 251 252 254 255 257 258 258 259 260 260 260
282 281 279 278 278 277 276 275 274 273 272 270 269 268 266 265 265 264 264 263 263 262 262 262 263 264 264 265 266 268 268 267 265 264 262 258 255 253 252 250 247 243 241 238 236 235 233 232 232 232 233 234 234 235 236 237 238 239 240 240 240 240 240 239 240 241 242 242 243 244 246 247 249 250 252 253 254 255 256 257 257 258 258 259 258
284 283 282 281 280 279 278 277 276 275 274 272 270 268 266 265 264 263 263 262 262 262 261 260 261 261 261 261 262 264 265 265 265 265 265 263 259 255 254 255 253 249 246 242 239 236 233 231 230 230 230 231 232 233 234 235 237 238 239 240 240 241 240 241 241 241 242 243 244 245 246 247 248 250 251 252 253 254 255 255 256 256 257 257 257
287 286 285 283 282 281 280 279 277 276 274 273 272 270 267 265 264 263 262 262 261 261 260 259 259 259 259 258 259 260 261 263 264 264 265 266 265 261 256 254 254 253 250 247 243 240 237 234 232 230 230 230 231 232 234 235 236 237 238 239 240 241 241 241 241 242 243 244 245 246 247 247 248 249 250 251 251 252 253 254 255 255 255 256 256
287 286 285 284 283 282 281 280 279 278 276 275 274 273 271 268 266 263 262 261 260 260 259 259 258 257 256 256 256 256 257 258 261 262 263 264 265 264 261 258 256 254 252 248 245 243 242 240 238 235 233 232 232 233 234 235 236 237 238 239 240 241 242 242 242 243 243 244 245 246 247 247 248 248 249 249 249 250 251 252 253 253 254 254 253
290 289 288 287 286 285 284 283 282 281 280 278 277 275 273 272 270 267 265 262 260 259 258 258 257 256 255 254 253 253 253 253 255 258 260 262 263 264 263 262 260 257 255 252 248 244 243 244 243 240 238 236 235 235 235 236 237 238 239 239 240 241 242 243 243 243 244 244 245 246 247 247 248 248 249 249 249 249 250 250 252 252 252 252 251
295 294 293 291 290 289 288 287 286 285 283 281 279 277 275 273 271 269 267 265 262 260 258 257 256 256 255 254 252 251 251 251 251 252 254 256 259 260 261 261 260 259 258 256 254 250 247 245 244 243 242 240 239 237 236 236 237 238 239 240 240 241 242 243 243 243 243 244 244 245 246 247 248 248 249 249 249 250 250 250 250 251 251 251 250
298 297 296 295 294 293 292 291 290 289 288 286 284 281 279 276 273 270 267 265 263 261 259 257 255 255 255 254 253 251 249 249 249 249 251 252 253 255 257 257 257 258 258 257 256 256 254 251 248 245 243 242 242 241 240 239 238 238 239 239 240 240 240 241 242 242 243 243 243 244 245 246 247 248 249 249 249 250 249 249 249 249 250 250 250
300 299 297 296 296 295 294 293 293 292 291 290 289 286 284 281 277 274 270 266 264 262 261 258 256 254 253 253 253 252 250 248 247 247 248 249 250 251 253 254 254 255 256 256 255 256 256 256 255 253 250 246 245 244 244 243 241 240 239 238 239 239 239 239 240 241 242 242 242 243 244 245 246 247 248 248 249 249 249 249 249 249 249 249 249
Height
10898 10898 10898 10900 10902 10906 10911 10916 10917 10916 10915 10913 10911 10911 10911 10911 10910 10910 10912 10914 10916 10918 10918 10918 10918 10919 10921 10923 10926 10928 10930 10932 10934 10936 10937 10939 10941 10942 10944 10946 10947 10949 10950 10951 10953 10954 10955 10955 10956 10956 10957 10958 10958 10959 10959 10959 10960 10960 10960 10959 10959 10959 10959 10959 10959 10960 10960 10961 10962 10963 10963 10964 10965 10966 10967 10967 10968 10969 10969 10969 10970 10970 10970 10970 10970
10896 10896 10897 10898 10903 10911 10917 10918 10918 10917 10915 10914 10912 10909 10907 10907 10906 10906 10907 10909 10911 10913 10914 10914 10914 10914 10915 10917 10919 10922 10923 10925 10927 10930 10932 10934 10936 10937 10939 10941 10942 10944 10946 10947 10949 10950 10951 10952 10952 10953 10953 10954 10955 10956 10956 10957 10957 10958 10958 10958 10957 10957 10958 10958 10957 10957 10957 10958 10959 10959 10960 10961 10962 10963 10964 10964 10965 10965 10966 10966 10966 10967 10967 10967 10967
10893 10894 10895 10898 10907 10914 10912 10907 10906 10907 10907 10908 10910 10909 10906 10904 10901 10899 10899 10901 10904 10906 10908 10909 10909 10910 10910 10912 10914 10917 10919 10920 10923 10925 10928 10929 10931 10932 10934 10935 10937 10939 10941 10943 10946 10946 10946 10948 10949 10949 10950 10950 10951 10952 10953 10953 10954 10955 10955 10955 10955 10955 10955 10955 10955 10955 10955 10956 10956 10956 10957 10958 10958 10959 10960 10961 10961 10962 10963 10963 10963 10964 10964 10964 10964
10888 10890 10891 10896 10906 10907 10898 10893 10893 10896 10898 10900 10902 10904 10903 10901 10897 10893 10890 10892 10895 10898 10901 10903 10904 10905 10906 10907 10910 10913 10916 10917 10919 10921 10924 10925 10927 10928 10929 10930 10932 10935 10936 10939 10942 10942 10941 10943 10943 10943 10945 10946 10947 10948 10949 10950 10951 10951 10952 10952 10952 10952 10952 10952 10952 10953 10953 10953 10953 10954 10954 10955 10955 10956 10956 10957 10958 10958 10959 10959 10960 10960 10960 10960 10960
10880 10883 10884 10890 10898 10898 10889 10882 10880 10884 10891 10896 10898 10896 10894 10892 10888 10884 10881 10882 10884 10888 10892 10896 10898 10899 10901 10903 10906 10910 10913 10915 10916 10917 10919 10921 10922 10924 10925 10927 10928 10930 10932 10934 10935 10935 10935 10935 10935 10938 10941 10942 10943 10944 10945 10946 10947 10948 10949 10950 10950 10950 10950 10949 10949 10949 10949 10949 10950 10951 10951 10951 10952 10952 10953 10953 10954 10955 10955 10955 10955 10956 10956 10956 10956
10873 10875 10877 10881 10887 10889 10885 10876 10871 10873 10880 10888 10892 10890 10887 10885 10884 10881 10877 10875 10876 10879 10882 10887 10891 10894 10897 10899 10902 10905 10908 10910 10911 10911 10912 10914 10916 10918 10920 10922 10924 10926 10928 10929 10929 10929 10929 10928 10930 10934 10937 10938 10939 10941 10941 10943 10944 10945 10946 10947 10948 10948 10948 10947 10946 10946 10946 10946 10946 10947 10947 10948 10949 10949 10950 10950 10950 10951 10951 10951 10951 10951 10952 10951 10951
10866 10868 10871 10873 10876 10879 10879 10874 10869 10869 10871 10876 10880 10881 10881 10882 10882 10881 10878 10873 10872 10873 10875 10879 10884 10888 10892 10894 10897 10899 10901 10902 10903 10903 10904 10906 10908 10910 10913 10915 10917 10920 10923 10924 10924 10924 10924 10925 10927 10929 10931 10932 10934 10936 10937 10939 10940 10941 10942 10942 10943 10944 10945 10946 10945 10944 10944 10943 10943 10943 10943 10944 10945 10946 10947 10947 10947 10947 10947 10947 10947 10947 10947 10947 10946
10859 10860 10863 10865 10867 10869 10870 10869 10867 10865 10864 10866 10869 10871 10874 10876 10876 10876 10874 10870 10868 10869 10872 10876 10878 10882 10885 10887 10888 10890 10891 10893 10893 10893 10895 10897 10899 10902 10904 10906 10909 10912 10915 10918 10919 10920 10920 10921 10923 10924 10925 10928 10929 10931 10933 10934 10936 10937 10938 10939 10939 10940 10940 10941 10942 10942 10942 10942 10941 10940 10940 10940 10941 10942 10943 10943 10944 10944 10945 10944 10944 10944 10943 10943 10942
10852 10852 10853 10855 10858 10859 10860 10862 10861 10860 10858 10858 10859 10862 10864 10866 10867 10866 10865 10864 10863 10867 10873 10875 10872 10873 10874 10875 10876 10879 10882 10885 10886 10887 10889 10891 10893 10895 10897 10898 10901 10904 10907 10910 10913 10915 10915 10917 10919 10920 10921 10923 10925 10928 10929 10930 10931 10933 10934 10935 10936 10936 10936 10937 10937 10938 10938 10939 10939 10939 10938 10937 10937 10938 10939 10940 10940 10941 10942 10941 10941 10941 10940 10939 10938
10844 10845 10846 10847 10848 10850 10851 10852 10853 10853 10852 10851 10851 10852 10854 10855 10856 10857 10857 10856 10856 10860 10867 10868 10863 10861 10862 10863 10866 10870 10874 10878 10881 10883 10887 10889 10891 10892 10893 10894 10895 10898 10901 10903 10906 10908 10909 10911 10913 10915 10917 10919 10921 10923 10924 10925 10927 10928 10930 10931 10932 10932 10932 10933 10933 10934 10934 10935 10935 10936 10936 10936 10935 10935 10935 10936 10937 10938 10938 10938 10938 10938 10937 10935 10934
10838 10838 10838 10839 10840 10841 10842 10843 10844 10845 10845 10845 10844 10844 10844 10845 10846 10847 10848 10848 10848 10850 10854 10856 10853 10852 10853 10855 10859 10863 10865 10868 10872 10877 10881 10884 10885 10886 10888 10889 10890 10893 10895 10898 10900 10901 10903 10905 10907 10909 10911 10913 10914 10916 10918 10919 10921 10922 10925 10927 10927 10928 10928 10929 10930 10930 10930 10930 10931 10933 10933 10933 10933 10932 10932 10932 10933 10934 10935 10935 10934 10934 10934 10932 10931
10832 10831 10830 10831 10832 10833 10833 10834 10836 10837 10838 10838 10838 10837 10837 10837 10837 10837 10838 10839 10840 10841 10844 10845 10844 10845 10847 10850 10852 10854 10857 10860 10863 10868 10872 10875 10876 10877 10878 10880 10882 10885 10888 10891 10894 10896 10898 10900 10902 10903 10905 10906 10907 10909 10910 10912 10913 10915 10918 10921 10922 10923 10924 10925 10926 10926 10926 10926 10927 10928 10928 10928 10929 10929 10928 10929 10929 10929 10930 10930 10929 10930 10930 10929 10927
10825 10823 10823 10823 10824 10824 10824 10825 10826 10828 10829 10830 10831 10831 10831 10830 10829 10829 10829 10830 10831 10832 10835 10836 10836 10837 10840 10844 10845 10847 10850 10853 10855 10859 10863 10866 10867 10868 10870 10872 10875 10878 10881 10884 10887 10889 10892 10894 10896 10897 10898 10899 10900 10902 10903 10904 10907 10909 10911 10914 10916 10917 10918 10920 10921 10922 10923 10923 10923 10923 10923 10924 10925 10925 10925 10925 10926 10925 10925 10925 10925 10925 10925 10924 10923
10819 10817 10815 10815 10816 10816 10816 10816 10817 10819 10820 10821 10822 10824 10824 10824 10823 10823 10822 10822 10822 10823 10825 10827 10828 10828 10831 10835 10838 10840 10843 10845 10848 10851 10855 10857 10858 10860 10863 10867 10870 10872 10875 10878 10880 10883 10885 10887 10889 10890 10892 10893 10895 10896 10897 10899 10902 10904 10906 10908 10909 10910 10912 10914 10915 10916 10917 10918 10919 10918 10919 10920 10920 10921 10921 10921 10921 10921 10921 10921 10921 10921 10920 10920 10919
10811 10810 10808 10807 10807 10808 10808 10808 10808 10809 10810 10811 10812 10814 10815 10816 10817 10816 10816 10815 10814 10814 10816 10818 10820 10820 10822 10826 10830 10833 10836 10838 10842 10845 10847 10849 10851 10853 10856 10860 10863 10866 10868 10871 10874 10877 10879 10880 10881 10882 10884 10886 10888 10889 10892 10895 10898 10899 10901 10902 10903 10905 10906 10907 10908 10910 10912 10913 10913 10914 10915 10916 10916 10916 10917 10917 10917 10917 10917 10917 10917 10917 10916 10916 10915
10801 10800 10799 10798 10798 10799 10799 10799 10799 10799 10800 10801 10801 10803 10804 10806 10808 10809 10809 10808 10807 10806 10808 10809 10811 10812 10814 10817 10821 10824 10827 10830 10834 10838 10840 10842 10844 10847 10850 10853 10857 10859 10861 10864 10867 10870 10872 10873 10874 10875 10877 10879 10880 10883 10886 10890 10892 10892 10893 10894 10896 10899 10900 10901 10902 10904 10906 10907 10907 10908 10910 10910 10911 10911 10912 10913 10913 10913 10913 10913 10913 10913 10913 10912 10911
10792 10790 10789 10788 10788 10789 10790 10790 10790 10790 10790 10791 10791 10792 10793 10795 10797 10799 10800 10800 10800 10800 10801 10800 10800 10802 10804 10807 10811 10815 10819 10822 10825 10829 10832 10834 10836 10840 10843 10847 10850 10852 10855 10857 10860 10863 10865 10866 10867 10868 10870 10871 10873 10877 10882 10884 10884 10884 10885 10886 10889 10891 10893 10894 10895 10897 10899 10901 10902 10903 10903 10904 10905 10906 10907 10908 10909 10909 10909 10908 10908 10909 10909 10908 10906
10781 10779 10778 10778 10777 10777 10778 10779 10779 10779 10779 10780 10781 10781 10782 10783 10785 10788 10790 10792 10793 10794 10793 10791 10791 10792 10794 10797 10801 10805 10809 10814 10817 10819 10822 10826 10828 10831 10835 10839 10842 10845 10848 10851 10853 10856 10857 10859 10860 10861 10862 10864 10867 10871 10875 10875 10875 10876 10877 10880 10883 10886 10885 10886 10889 10891 10892 10894 10896 10896 10897 10898 10899 10900 10901 10903 10904 10905 10905 10903 10903 10905 10905 10903 10902
10770 10768 10767 10766 10766 10766 10765 10766 10767 10767 10768 10769 10769 10770 10771 10772 10773 10775 10779 10781 10784 10786 10786 10784 10783 10783 10784 10787 10791 10795 10799 10804 10808 10810 10812 10816 10819 10822 10826 10830 10834 10837 10841 10844 10846 10848 10850 10851 10852 10853 10854 10857 10861 10865 10867 10866 10866 10868 10871 10875 10877 10878 10877 10879 10883 10885 10886 10887 10888 10889 10890 10891 10893 10894 10896 10897 10899 10900 10900 10899 10899 10901 10901 10899 10898
10760 10758 10756 10755 10755 10755 10754 10754 10754 10755 10756 10757 10758 10759 10760 10761 10762 10764 10767 10770 10773 10776 10778 10778 10777 10776 10776 10777 10781 10785 10789 10794 10799 10802 10803 10806 10809 10813 10817 10820 10824 10829 10833 10835 10837 10839 10841 10843 10844 10845 10847 10850 10854 10857 10858 10857 10857 10860 10864 10867 10868 10868 10870 10874 10877 10878 10878 10879 10880 10881 10883 10884 10886 10888 10890 10892 10893 10894 10895 10894 10894 10896 10896 10895 10894
10750 10748 10747 10745 10744 10743 10743 10743 10743 10744 10745 10746 10747 10748 10749 10750 10751 10753 10755 10758 10761 10764 10767 10769 10769 10769 10768 10769 10771 10774 10779 10784 10789 10793 10795 10797 10800 10804 10808 10811 10816 10821 10824 10826 10827 10829 10832 10834 10835 10836 10838 10842 10846 10850 10850 10849 10850 10853 10855 10857 10858 10860 10865 10868 10869 10869 10870 10871 10872 10873 10876 10878 10880 10882 10884 10886 10888 10889 10889 10889 10889 10890 10891 10890 10889
10740 10739 10737 10736 10734 10733 10733 10733 10733 10733 10734 10735 10736 10736 10738 10740 10741 10742 10744 10746 10749 10751 10754 10757 10759 10760 10760 10760 10761 10764 10769 10774 10779 10784 10788 10790 10792 10795 10799 10803 10808 10812 10815 10816 10817 10819 10822 10825 10825 10827 10830 10834 10838 10842 10843 10842 10843 10844 10846 10848 10851 10854 10857 10859 10859 10861 10863 10863 10864 10866 10868 10870 10873 10875 10877 10879 10881 10882 10883 10883 10884 10885 10885 10885 10884
10730 10729 10728 10726 10725 10724 10723 10722 10723 10723 10724 10725 10725 10726 10727 10729 10730 10732 10733 10735 10737 10739 10741 10744 10747 10749 10750 10751 10752 10754 10758 10764 10769 10774 10778 10781 10784 10787 10790 10794 10800 10803 10804 10806 10808 10811 10813 10815 10816 10819 10823 10826 10830 10835 10837 10836 10836 10836 10838 10842 10845 10847 10849 10850 10851 10853 10855 10856 10858 10859 10861 10863 10865 10867 10870 10872 10874 10876 10876 10877 10878 10879 10880 10880 10879
10720 10719 10718 10717 10716 10715 10714 10713 10713 10713 10713 10714 10715 10715 10717 10719 10720 10722 10723 10725 10726 10727 10728 10731 10734 10737 10739 10740 10742 10744 10748 10753 10758 10762 10767 10771 10775 10779 10782 10787 10792 10794 10795 10797 10799 10802 10805 10806 10809 10813 10816 10818 10823 10828 10830 10829 10828 10829 10832 10836 10838 10840 10841 10842 10844 10846 10848 10849 10851 10852 10854 10856 10858 10860 10862 10864 10866 10867 10868 10870 10872 10873 10874 10874 10873
10709 10709 10708 10707 10707 10706 10705 10703 10703 10703 10703 10703 10704 10705 10706 10708 10710 10711 10712 10714 10716 10716 10717 10718 10721 10724 10726 10729 10731 10734 10737 10742 10747 10751 10756 10761 10766 10770 10774 10779 10784 10787 10787 10788 10790 10794 10796 10798 10802 10806 10809 10811 10815 10818 10820 10821 10821 10823 10825 10829 10832 10833 10833 10835 10837 10839 10840 10841 10843 10845 10847 10850 10851 10853 10855 10857 10858 10859 10861 10863 10865 10866 10867 10867 10867
10698 10698 10698 10697 10697 10696 10695 10694 10693 10692 10692 10693 10693 10694 10695 10697 10698 10699 10701 10703 10704 10706 10706 10707 10709 10712 10714 10716 10719 10723 10726 10730 10735 10739 10745 10752 10757 10762 10766 10770 10775 10779 10778 10778 10780 10784 10786 10790 10795 10798 10800 10802 10804 10806 10808 10811 10814 10816 10818 10822 10825 10826 10827 10827 10830 10831 10831 10832 10834 10836 10838 10841 10844 10845 10846 10848 10850 10851 10853 10855 10857 10858 10859 10860 10859
10686 10686 10686 10686 10686 10685 10685 10684 10683 10682 10682 10682 10682 10683 10684 10686 10687 10687 10689 10691 10693 10694 10695 10696 10698 10700 10701 10703 10706 10710 10714 10718 10722 10728 10735 10742 10748 10752 10756 10760 10764 10767 10768 10768 10772 10776 10780 10784 10787 10788 10789 10790 10792 10794 10797 10801 10805 10809 10813 10817 10820 10819 10817 10817 10820 10821 10822 10823 10825 10827 10829 10832 10835 10836 10838 10839 10841 10842 10845 10847 10848 10849 10851 10852 10850
10674 10674 10674 10674 10674 10674 10674 10673 10673 10672 10671 10671 10672 10672 10673 10675 10676 10676 10677 10679 10681 10682 10683 10684 10686 10688 10690 10691 10694 10697 10701 10705 10710 10716 10725 10732 10737 10741 10746 10750 10753 10756 10757 10760 10766 10773 10775 10773 10773 10775 10778 10780 10782 10785 10789 10792 10797 10802 10806 10810 10810 10807 10804 10806 10809 10810 10811 10813 10817 10818 10820 10823 10825 10827 10829 10831 10831 10834 10837 10839 10839 10840 10842 10843 10841
10661 10661 10662 10662 10663 10662 10662 10662 10662 10662 10661 10661 10661 10661 10662 10663 10664 10664 10665 10667 10670 10670 10670 10671 10673 10676 10678 10680 10682 10685 10688 10691 10697 10705 10714 10721 10726 10730 10734 10737 10740 10743 10747 10752 10759 10763 10760 10756 10758 10762 10767 10770 10774 10777 10781 10785 10790 10794 10796 10798 10797 10795 10794 10797 10798 10798 10801 10805 10807 10809 10811 10814 10816 10818 10820 10822 10823 10825 10829 10831 10831 10831 10833 10834 10833
10649 10649 10650 10650 10651 10651 10650 10650 10651 10651 10651 10650 10650 10649 10650 10651 10653 10653 10653 10655 10658 10659 10658 10658 10660 10663 10667 10669 10671 10674 10676 10678 10685 10694 10702 10709 10715 10718 10720 10724 10728 10732 10736 10741 10748 10749 10744 10742 10746 10751 10755 10760 10765 10769 10774 10780 10783 10783 10783 10784 10785 10785 10786 10787 10787 10788 10792 10795 10797 10799 10801 10804 10805 10808 10811 10812 10814 10817 10819 10821 10822 10823 10825 10825 10825
10636 10637 10637 10638 10639 10639 10639 10640 10640 10640 10640 10640 10639 10638 10638 10639 10641 10642 10642 10643 10646 10648 10648 10647 10648 10652 10655 10658 10660 10663 10665 10667 10673 10682 10690 10696 10701 10704 10707 10712 10717 10721 10724 10729 10735 10735 10731 10731 10736 10740 10745 10751 10755 10759 10766 10770 10768 10765 10767 10770 10773 10776 10777 10777 10778 10780 10783 10786 10787 10789 10791 10794 10796 10798 10801 10803 10805 10808 10810 10812 10813 10815 10816 10818 10818
10624 10624 10625 10626 10628 10628 10629 10629 10630 10630 10630 10630 10630 10629 10627 10626 10628 10632 10633 10633 10634 10637 10638 10638 10638 10641 10644 10646 10648 10651 10654 10656 10661 10669 10677 10682 10687 10691 10694 10699 10705 10709 10713 10717 10722 10723 10721 10721 10726 10731 10737 10742 10745 10748 10752 10754 10752 10752 10756 10760 10763 10766 10768 10768 10770 10772 10775 10776 10777 10779 10782 10784 10787 10789 10792 10794 10796 10798 10801 10803 10804 10806 10808 10809 10809
10612 10613 10614 10616 10617 10617 10619 10619 10619 10619 10620 10620 10619 10619 10618 10617 10617 10619 10623 10625 10625 10626 10628 10629 10630 10631 10633 10635 10637 10640 10643 10646 10649 10656 10663 10668 10673 10677 10682 10686 10692 10698 10702 10706 10709 10710 10710 10711 10715 10721 10728 10732 10733 10735 10739 10742 10742 10745 10749 10752 10754 10758 10760 10762 10764 10765 10766 10766 10768 10771 10773 10775 10778 10781 10783 10785 10788 10790 10792 10794 10796 10798 10800 10800 10799
10603 10603 10605 10607 10607 10608 10609 10610 10610 10610 10610 10610 10610 10609 10609 10609 10608 10609 10612 10615 10617 10618 10618 10619 10620 10621 10623 10625 10627 10628 10631 10634 10637 10642 10649 10655 10660 10664 10669 10674 10680 10685 10690 10695 10698 10699 10700 10701 10705 10710 10717 10721 10721 10725 10730 10733 10734 10738 10742 10745 10747 10751 10754 10755 10756 10756 10757 10759 10760 10760 10762 10765 10768 10772 10774 10776 10779 10781 10783 10785 10787 10789 10790 10790 10790
10594 10595 10596 10598 10599 10600 10600 10601 10601 10602 10602 10602 10602 10601 10601 10601 10601 10601 10602 10605 10608 10610 10611 10610 10610 10611 10613 10615 10617 10618 10619 10622 10625 10630 10635 10641 10647 10652 10657 10661 10667 10673 10678 10683 10687 10689 10690 10692 10694 10700 10706 10710 10712 10715 10721 10725 10727 10731 10735 10738 10741 10744 10745 10744 10744 10745 10746 10747 10746 10747 10749 10754 10758 10761 10763 10766 10770 10772 10773 10775 10777 10779 10781 10782 10782
10587 10588 10589 10591 10592 10592 10593 10593 10594 10595 10595 10594 10594 10594 10594 10594 10594 10594 10595 10595 10597 10600 10602 10603 10603 10602 10603 10605 10607 10608 10608 10610 10613 10618 10623 10628 10634 10639 10644 10648 10654 10659 10665 10671 10675 10679 10682 10684 10686 10690 10696 10701 10704 10707 10711 10715 10719 10723 10727 10729 10731 10733 10731 10729 10731 10734 10734 10733 10734 10736 10740 10744 10747 10750 10754 10757 10760 10761 10762 10764 10766 10768 10770 10772 10773
10581 10582 10583 10584 10586 10586 10587 10587 10588 10588 10588 10588 10588 10588 10588 10588 10588 10588 10588 10588 10589 10590 10592 10595 10596 10596 10595 10595 10595 10597 10599 10601 10604 10608 10613 10617 10622 10626 10631 10636 10641 10646 10651 10657 10662 10667 10671 10675 10678 10681 10686 10691 10694 10697 10700 10705 10709 10713 10716 10718 10718 10719 10718 10718 10721 10723 10723 10724 10726 10728 10731 10734 10737 10741 10745 10747 10748 10749 10751 10754 10756 10757 10757 10759 10762
10577 10578 10578 10579 10580 10581 10581 10582 10582 10582 10582 10582 10582 10582 10582 10582 10582 10582 10582 10582 10582 10582 10583 10585 10587 10588 10588 10587 10586 10587 10590 10594 10597 10600 10603 10607 10610 10614 10619 10623 10628 10633 10638 10643 10648 10654 10658 10663 10667 10672 10676 10679 10683 10686 10690 10695 10699 10703 10706 10707 10708 10709 10710 10710 10711 10712 10714 10716 10718 10718 10721 10725 10728 10732 10735 10737 10737 10739 10744 10747 10747 10746 10746 10749 10753
10574 10574 10574 10575 10576 10576 10577 10577 10577 10577 10577 10577 10577 10577 10577 10576 10576 10576 10576 10576 10576 10576 10577 10577 10578 10579 10580 10581 10580 10580 10582 10585 10588 10591 10593 10596 10599 10603 10607 10611 10615 10619 10624 10629 10635 10639 10644 10649 10655 10660 10664 10668 10672 10677 10682 10685 10688 10691 10694 10696 10697 10699 10700 10701 10702 10703 10705 10707 10709 10709 10712 10715 10719 10723 10726 10727 10727 10730 10735 10737 10737 10738 10739 10742 10745
10571 10571 10571 10571 10571 10572 10572 10572 10572 10572 10572 10572 10572 10572 10572 10572 10571 10571 10571 10571 10571 10570 10571 10571 10571 10571 10572 10573 10574 10575 10576 10577 10579 10582 10585 10587 10589 10592 10596 10599 10602 10607 10612 10616 10622 10627 10631 10637 10643 10648 10652 10657 10662 10667 10672 10674 10675 10677 10681 10683 10684 10687 10689 10691 10693 10695 10696 10698 10699 10700 10702 10705 10709 10713 10716 10718 10719 10720 10723 10725 10727 10730 10732 10734 10736
10568 10568 10568 10567 10567 10567 10567 10567 10567 10567 10566 10566 10566 10566 10566 10566 10566 10566 10565 10565 10565 10565 10565 10565 10565 10565 10565 10566 10567 10569 10570 10571 10572 10573 10576 10578 10580 10582 10585 10588 10591 10595 10600 10604 10610 10616 10622 10627 10632 10636 10641 10646 10651 10656 10659 10661 10663 10666 10669 10671 10673 10676 10679 10681 10684 10686 10687 10689 10689 10690 10692 10695 10699 10702 10705 10708 10710 10711 10712 10714 10716 10719 10722 10724 10726
10565 10565 10564 10564 10563 10563 10563 10562 10562 10562 10561 10561 10560 10560 10560 10560 10560 10560 10559 10559 10559 10559 10559 10559 10559 10559 10559 10560 10560 10561 10563 10564 10565 10565 10567 10568 10570 10572 10574 10577 10580 10584 10588 10593 10598 10605 10611 10616 10620 10624 10629 10635 10640 10644 10647 10649 10653 10656 10659 10661 10663 10665 10667 10670 10672 10674 10676 10678 10679 10680 10682 10685 10688 10691 10694 10697 10700 10702 10702 10704 10707 10709 10712 10714 10717
10561 10561 10560 10559 10559 10558 10558 10557 10557 10556 10556 10555 10554 10554 10553 10553 10553 10553 10553 10552 10553 10553 10553 10553 10553 10553 10554 10554 10554 10555 10555 10556 10558 10558 10559 10560 10562 10563 10565 10568 10571 10573 10577 10581 10586 10592 10598 10603 10607 10612 10618 10624 10629 10633 10636 10638 10640 10641 10642 10645 10649 10652 10655 10656 10659 10661 10664 10667 10668 10670 10672 10675 10678 10681 10684 10686 10690 10692 10694 10695 10698 10699 10702 10704 10707
10557 10556 10555 10554 10553 10552 10552 10551 10550 10549 10549 10548 10548 10547 10547 10546 10546 10545 10545 10545 10545 10546 10546 10547 10547 10547 10548 10548 10549 10549 10549 10549 10550 10551 10552 10553 10555 10557 10559 10561 10563 10564 10566 10570 10574 10580 10585 10590 10595 10599 10603 10608 10611 10613 10615 10616 10615 10616 10620 10625 10631 10636 10640 10643 10645 10648 10652 10654 10656 10658 10661 10664 10668 10670 10673 10676 10679 10682 10684 10686 10688 10690 10692 10694 10697
10552 10551 10550 10549 10548 10546 10545 10544 10543 10542 10542 10541 10541 10540 10539 10539 10538 10538 10538 10538 10538 10538 10539 10539 10540 10540 10541 10542 10543 10543 10543 10543 10544 10545 10544 10544 10547 10551 10553 10554 10555 10557 10559 10561 10565 10569 10572 10574 10576 10579 10583 10586 10588 10590 10592 10593 10594 10597 10603 10608 10613 10619 10624 10628 10631 10635 10638 10641 10643 10646 10649 10652 10655 10659 10662 10665 10668 10671 10673 10675 10677 10680 10683 10684 10686
10546 10545 10543 10542 10541 10540 10538 10537 10536 10535 10534 10533 10532 10532 10531 10531 10530 10530 10530 10530 10530 10530 10531 10531 10532 10532 10534 10535 10536 10537 10537 10537 10537 10538 10538 10538 10540 10543 10546 10547 10548 10550 10552 10554 10557 10559 10559 10559 10561 10564 10567 10569 10571 10574 10575 10577 10580 10585 10590 10595 10599 10604 10610 10614 10618 10622 10625 10628 10630 10633 10636 10639 10642 10646 10650 10654 10657 10660 10663 10664 10667 10670 10672 10675 10677
10540 10538 10537 10535 10534 10532 10531 10530 10528 10527 10527 10526 10525 10523 10522 10522 10522 10522 10521 10521 10522 10522 10522 10523 10523 10524 10525 10527 10528 10529 10530 10530 10530 10531 10532 10532 10533 10535 10537 10539 10541 10542 10544 10545 10548 10550 10551 10551 10553 10556 10558 10559 10561 10563 10564 10567 10570 10574 10578 10583 10587 10592 10597 10601 10605 10609 10612 10615 10618 10620 10623 10626 10629 10633 10637 10642 10646 10649 10651 10653 10655 10658 10661 10664 10666
10533 10531 10530 10528 10527 10525 10524 10522 10521 10520 10519 10518 10517 10515 10514 10513 10513 10513 10513 10513 10513 10513 10513 10514 10514 10515 10516 10518 10519 10520 10522 10523 10524 10524 10525 10526 10526 10527 10529 10531 10533 10534 10536 10537 10539 10541 10543 10543 10545 10547 10549 10551 10552 10554 10556 10558 10560 10563 10567 10571 10575 10579 10584 10588 10592 10595 10598 10602 10605 10607 10609 10612 10615 10619 10624 10629 10633 10637 10640 10642 10643 10646 10649 10653 10655
10526 10524 10523 10521 10519 10518 10516 10515 10513 10512 10511 10510 10509 10507 10506 10505 10504 10504 10504 10504 10504 10504 10504 10505 10506 10506 10507 10508 10510 10511 10512 10514 10515 10517 10518 10519 10520 10520 10521 10523 10524 10526 10527 10529 10530 10532 10534 10535 10535 10537 10538 10541 10543 10544 10546 10548 10550 10553 10556 10560 10563 10567 10570 10574 10577 10581 10584 10588 10591 10593 10596 10599 10602 10606 10610 10615 10619 10624 10627 10630 10631 10633 10636 10640 10643
10519 10518 10516 10514 10512 10511 10509 10507 10506 10504 10503 10502 10501 10499 10498 10497 10496 10495 10495 10495 10494 10494 10494 10495 10496 10497 10498 10499 10500 10502 10503 10505 10506 10508 10510 10511 10513 10514 10514 10515 10516 10518 10519 10520 10522 10523 10524 10525 10526 10528 10529 10531 10532 10534 10536 10539 10541 10543 10545 10548 10551 10554 10558 10561 10564 10567 10570 10574 10577 10580 10583 10586 10590 10593 10597 10602 10606 10610 10614 10617 10619 10621 10624 10627 10630
10513 10511 10509 10507 10505 10503 10502 10500 10498 10497 10495 10494 10492 10491 10490 10489 10488 10487 10486 10486 10485 10485 10485 10485 10486 10487 10488 10489 10491 10492 10494 10496 10497 10499 10500 10502 10504 10505 10506 10507 10508 10510 10511 10512 10513 10515 10516 10517 10517 10519 10520 10522 10523 10525 10526 10528 10530 10532 10534 10537 10539 10542 10545 10548 10551 10554 10557 10560 10563 10567 10570 10573 10577 10581 10584 10588 10592 10596 10600 10603 10605 10608 10611 10614 10616